Weather History for KABY - August, 2012

Change the Weather History Date:

Friday, August 10, 2012

  Actual Average Record
Temperature  
Mean Temperature 78 °F 82 °F  
Max Temperature 82 °F 92 °F 100 °F (2007)
Min Temperature 74 °F 72 °F 63 °F (2002)
Degree Days  
Heating Degree Days 0 0  
Month to date heating degree days 0 0  
Since 1 June heating degree days 0 0  
Since 1 July heating degree days 0 0  
Cooling Degree Days 13 17  
Month to date cooling degree days 167 170  
Year to date cooling degree days 1953 1616  
Since 1 June cooling degree days 1215 1176  
Growing Degree Days 27 (Base 50)    
Moisture  
Dew Point 72 °F    
Average Humidity 85    
Maximum Humidity 100    
Minimum Humidity 69    
Precipitation  
Precipitation T in 0.16 in 1.25 in (2007)
Month to date precipitation 4.65 1.55  
Year to date precipitation 20.29 32.31  
Sea Level Pressure  
Sea Level Pressure 29.93 in    
Wind  
Wind Speed 6 mph (SW)    
Max Wind Speed 13 mph    
Max Gust Speed 18 mph    
Visibility 10 miles    
Events Rain    
T = Trace of Precipitation, MM = Missing Value Source: NWS Daily Summary

Daily Weather History Graph

Daily Weather History Graph

Search for Another Location

Airport or City:

Trip Planner

Search our weather history database for the weather conditions in past years. The results will help you decide how hot, cold, wet, or windy it might be!

Date:

Astronomy

Aug. 10, 2012 Rise Set
Actual Time 6:59 AM EDT 8:24 PM EDT
Civil Twilight 6:33 AM EDT 8:50 PM EDT
Nautical Twilight 6:02 AM EDT 9:21 PM EDT
Astronomical Twilight 5:30 AM EDT 9:53 PM EDT
Moon 12:51 AM EDT (8/10) 2:58 PM EDT (8/10)
Length of Visible Light 14h 17m
Length of Day
13h 25m
Last Quarter, 42% of the Moon is Illuminated
Aug 10
Last Quarter
Aug 17
New
Aug 24
First Quarter
Aug 31
Full
Sep 8
Last Quarter

Hourly Weather History & Observations

Time (EDT) Temp. Heat Index Dew Point Humidity Pressure Visibility Wind Dir Wind Speed Gust Speed Precip Events Conditions
12:53 AM 75.9 °F - 73.0 °F 91% 29.91 in 10.0 mi SSW 3.5 mph - N/A   Clear
1:53 AM 75.0 °F - 72.0 °F 90% 29.92 in 10.0 mi SSW 5.8 mph - N/A   Clear
2:53 AM 75.0 °F - 73.0 °F 94% 29.91 in 10.0 mi SSW 4.6 mph - N/A   Clear
3:48 AM 73.4 °F - 73.4 °F 100% 29.90 in 10.0 mi SW 4.6 mph - N/A   Mostly Cloudy
3:53 AM 73.9 °F - 73.0 °F 97% 29.90 in 10.0 mi SSW 6.9 mph - N/A   Mostly Cloudy
4:23 AM 75.2 °F - 73.4 °F 94% 29.91 in 10.0 mi SW 8.1 mph - N/A   Overcast
4:48 AM 73.4 °F - 73.4 °F 100% 29.92 in 10.0 mi WSW 6.9 mph - N/A   Mostly Cloudy
4:53 AM 73.9 °F - 73.0 °F 97% 29.91 in 10.0 mi SW 5.8 mph - N/A   Mostly Cloudy
5:17 AM 75.2 °F - 73.4 °F 94% 29.92 in 10.0 mi WSW 8.1 mph - N/A   Overcast
5:47 AM 73.4 °F - 73.4 °F 100% 29.92 in 10.0 mi WSW 3.5 mph - N/A   Overcast
5:53 AM 73.9 °F - 72.0 °F 93% 29.92 in 10.0 mi WSW 4.6 mph - N/A   Overcast
6:53 AM 73.9 °F - 72.0 °F 93% 29.94 in 10.0 mi SW 5.8 mph - 0.00 in Rain Light Rain
7:39 AM 73.4 °F - 71.6 °F 94% 29.95 in 10.0 mi SW 3.5 mph - 0.00 in   Overcast
7:53 AM 73.9 °F - 71.1 °F 91% 29.95 in 10.0 mi SW 3.5 mph - 0.00 in   Mostly Cloudy
7:58 AM 73.4 °F - 71.6 °F 94% 29.95 in 10.0 mi WSW 3.5 mph - N/A   Mostly Cloudy
8:53 AM 75.9 °F - 72.0 °F 87% 29.96 in 10.0 mi SW 5.8 mph - N/A   Scattered Clouds
9:53 AM 78.1 °F - 71.1 °F 79% 29.96 in 10.0 mi WSW 9.2 mph - N/A   Mostly Cloudy
10:53 AM 77.0 °F - 71.1 °F 82% 29.97 in 10.0 mi SSW 5.8 mph - N/A   Mostly Cloudy
11:53 AM 78.1 °F - 71.1 °F 79% 29.96 in 10.0 mi WSW 5.8 mph - N/A   Mostly Cloudy
12:53 PM 81.0 °F 85.2 °F 72.0 °F 74% 29.96 in 10.0 mi SW 9.2 mph - N/A   Scattered Clouds
1:41 PM 80.6 °F 84.6 °F 71.6 °F 74% 29.96 in 10.0 mi SW 12.7 mph - N/A   Mostly Cloudy
1:53 PM 81.0 °F 84.9 °F 71.1 °F 72% 29.96 in 10.0 mi WSW 9.2 mph 18.4 mph N/A   Mostly Cloudy
2:53 PM 79.0 °F - 72.0 °F 79% 29.95 in 10.0 mi WSW 10.4 mph - 0.00 in Rain Light Rain
3:53 PM 80.1 °F 82.9 °F 69.1 °F 69% 29.94 in 10.0 mi WSW 6.9 mph - 0.00 in   Clear
4:53 PM 80.1 °F 83.2 °F 70.0 °F 71% 29.92 in 10.0 mi SW 4.6 mph - N/A   Clear
5:53 PM 81.0 °F 84.4 °F 70.0 °F 69% 29.91 in 10.0 mi SW 4.6 mph - N/A   Clear
6:53 PM 81.0 °F 84.4 °F 70.0 °F 69% 29.91 in 10.0 mi South 8.1 mph - N/A   Clear
7:53 PM 79.0 °F - 71.1 °F 77% 29.92 in 10.0 mi South 5.8 mph - N/A   Clear
8:53 PM 77.0 °F - 71.1 °F 82% 29.93 in 10.0 mi South 3.5 mph - N/A   Clear
9:53 PM 75.0 °F - 71.1 °F 87% 29.92 in 10.0 mi SSE 3.5 mph - N/A   Clear
10:53 PM 75.0 °F - 72.0 °F 90% 29.96 in 10.0 mi South 3.5 mph - N/A   Clear
11:53 PM 73.9 °F - 72.0 °F 93% 29.94 in 10.0 mi SSW 3.5 mph - N/A   Clear